Regional Weather Roundup
Issued by NWS

Home | Current Version | Previous Version | Text Only | Print | Product List | Glossary On
Versions: 1 2 3 4 5 6 7 8 9 10 11 12 13 14 15 16 17 18 19 20 21 22 23 24 25 26 27 28 29 30 31 32 33 34 35 36 37 38 39 40 41 42 43 44 45 46 47 48 49 50
000
ASUS43 KDTX 061201
RWRMI
MICHIGAN HOURLY REGIONAL WEATHER ROUNDUP
NATIONAL WEATHER SERVICE DETROIT/PONTIAC MI
700 AM EST FRI MAR 06 2015

NOTE: "FAIR" INDICATES FEW OR NO CLOUDS BELOW 12,000 FEET WITH NO
SIGNIFICANT WEATHER AND/OR OBSTRUCTION TO VISIBILITY.

MIZ047>049-052>055-059>063-066>070-074>076-081>083-061300-
SOUTHEAST LOWER MICHIGAN

CITY           SKY/WX    TMP DP  RH WIND       PRES   REMARKS
ADRIAN         PTCLDY    -5  -7  91 SW5       30.49S WCI -16
6HR MIN TEMP:  -5; 6HR MAX TEMP:   1;

ALMA           PTCLDY     3   0  87 S9        30.41F WCI -12
ANN ARBOR      PTCLDY    -9 -13  83 W3        30.47S
BAD AXE        PTCLDY    -1  -4  87 S7        30.41S WCI -14
6HR MIN TEMP:  -5; 6HR MAX TEMP:   0;

CARO           PTCLDY    -7 -12  78 SW5       30.42S WCI -18
DETROIT CITY   PTCLDY     5  -2  72 CALM      30.48F
6HR MIN TEMP:   5; 6HR MAX TEMP:  12;

DETROIT        MOCLDY     2  -3  80 S5        30.49F WCI  -8
6HR MIN TEMP:   0; 6HR MAX TEMP:   9;

FLINT          MOCLDY     4  -1  80 SW8       30.44F WCI  -9
6HR MIN TEMP:  -5; 6HR MAX TEMP:   5;

GROSSE ILE     MOCLDY     0  -6  78 CALM      30.49S
HILLSDALE      MOCLDY     4   0  84 SW3       30.42F
6HR MIN TEMP:   0; 6HR MAX TEMP:   5;

HOWELL         MOCLDY     3  -1  85 SW6       30.43S WCI  -8
6HR MIN TEMP:   1; 6HR MAX TEMP:   5;


CITY           SKY/WX    TMP DP  RH WIND       PRES   REMARKS
JACKSON        MOCLDY     0  -5  79 SW5       30.44F WCI -10
6HR MIN TEMP:  -3; 6HR MAX TEMP:   3;

LAMBERTVILLE   PTCLDY     1  -4  78 CALM      30.51S
LANSING        PTCLDY     4  -1  80 S8        30.44S WCI  -9
6HR MIN TEMP:   2; 6HR MAX TEMP:   6;

LAPEER         FAIR     -13 -18  77 CALM      30.43F
MASON          MOCLDY    -3  -7  83 CALM      30.43F
MT. CLEMENS    PTCLDY    -5 -10  79 CALM      30.45F
6HR MIN TEMP:  -7; 6HR MAX TEMP:   2;

PONTIAC        PTCLDY    -3  -9  75 CALM      30.43S
6HR MIN TEMP:  -4; 6HR MAX TEMP:   1;

PORT HOPE        N/A      3  -3  76 VRB7      30.39F WCI  -9
6HR MIN TEMP:   0; 6HR MAX TEMP:   5;

PORT HURON     MOCLDY   -13 -18  77 S3        30.47F
TRI CITIES     PTCLDY     4  -1  80 S10       30.41F WCI -11
6HR MIN TEMP:   3; 6HR MAX TEMP:   6;

TROY           PTCLDY     7   1  78 CALM      30.48F
SAGINAW HB     PTCLDY     5   1  85 SW9       30.42F WCI  -9
$$
MIZ043>046-050>051-056>058-064>065-071>073-077>080-061300-
SOUTHWEST LOWER MICHIGAN

CITY           SKY/WX    TMP DP  RH WIND       PRES   REMARKS
BATTLE CREEK   FAIR       0  -5  79 S7        30.44S WCI -13
6HR MIN TEMP:   0; 6HR MAX TEMP:   5;

BENTON HARBOR  PTCLDY     2  -2  83 S8        30.46F WCI -12
6HR MIN TEMP:   2; 6HR MAX TEMP:   8;

BIG RAPIDS     LGT SNOW   1  -2  90 S5        30.34F WCI  -9
6HR MIN TEMP:  -6; 6HR MAX TEMP:   1;

COLDWATER      PTCLDY     0  -5  82 SW7       30.45S WCI -13
6HR MIN TEMP:  -5; 6HR MAX TEMP:   2;

FREMONT        FLURRIES   8   4  82 CALM      30.37F
HOLLAND        CLOUDY     7   2  80 S8        30.43F WCI  -6
6HR MIN TEMP:  -1; 6HR MAX TEMP:   8;

GRAND RAPIDS   MOCLDY     5   0  79 SW10      30.42F WCI -10
6HR MIN TEMP:   1; 6HR MAX TEMP:   8;

IONIA          FAIR       5   0  81 SW8       30.41F WCI  -9
KALAMAZOO      CLEAR     -1  -6  79 S7        30.45F WCI -14
6HR MIN TEMP:  -2; 6HR MAX TEMP:   5;

LUDINGTON      PTCLDY    16   8  71 SW12      30.35F WCI   2
MARSHALL       MOCLDY     1  -3  83 S3        30.44S
MOUNT PLEASANT FLURRIES   3  -1  83 S3        30.38F
MUSKEGON       CLOUDY    15   8  73 SW12      30.40F WCI   2
6HR MIN TEMP:  13; 6HR MAX TEMP:  16;

SOUTH HAVEN    PTCLDY     6   1  78 S7        30.44F WCI  -5
$$
MIZ016>042-061300-
NORTHERN LOWER MICHIGAN

CITY           SKY/WX    TMP DP  RH WIND       PRES   REMARKS
ALPENA         PTCLDY     2  -3  80 S6        30.32F WCI  -9
6HR MIN TEMP: -12; 6HR MAX TEMP:   2;

BEAVER ISLAND  CLEAR     10   3  74 SW13      30.24F WCI  -5
6HR MIN TEMP:   8; 6HR MAX TEMP:  11;

BELLAIRE       CLEAR      4   0  83 SW3       30.31F
6HR MIN TEMP:  -6; 6HR MAX TEMP:   5;

CADILLAC       MOCLDY     6   2  87 S8        30.27S WCI  -7
CHARLEVOIX     CLEAR      5   0  79 CALM      30.30S
FRANKFORT      CLEAR     16   9  72 SW9G17    30.31F WCI   5
GAYLORD        PTCLDY     5   1  83 SW14      30.23F WCI -12
6HR MIN TEMP:  -1; 6HR MAX TEMP:   5;

GRAYLING       PTCLDY    -2  -5  87 SE5       30.28F WCI -12
6HR MIN TEMP:  -7; 6HR MAX TEMP:   3;

HARBOR SPRINGS CLEAR      2  -2  83 CALM      30.26F
HOUGHTON LAKE  PTCLDY     1  -3  83 S9        30.31F WCI -14
6HR MIN TEMP:   0; 6HR MAX TEMP:   3;

MANISTEE       PTCLDY     0  -4  85 CALM      30.33F
OSCODA         PTCLDY     1  -3  85 SW12      30.36F WCI -16
PELLSTON       PTCLDY     5  -1  76 S3        30.26F
6HR MIN TEMP:  -9; 6HR MAX TEMP:   8;

ROGERS CITY    PTCLDY     1  -3  85 S5        30.29F WCI  -9
TRAVERSE CITY  PTCLDY    10   3  73 VRB6      30.29F WCI   0
6HR MIN TEMP:   2; 6HR MAX TEMP:  10;

$$
MIZ007>008-015-061300-
EASTERN UPPER MICHIGAN

CITY           SKY/WX    TMP DP  RH WIND       PRES   REMARKS
KINROSS        PTCLDY     1   0  92 SW5       30.21F WCI  -8
6HR MIN TEMP:   0; 6HR MAX TEMP:   3;

MACKINAC ISLAN PTCLDY     5  -1  76 S8        30.23F WCI  -9
6HR MIN TEMP:   3; 6HR MAX TEMP:   7;

NEWBERRY       PTCLDY     1  -5  75 SW14      30.16F WCI -17
6HR MIN TEMP:  -3; 6HR MAX TEMP:   1;

S. S. MARIE    PTCLDY    -9 -15  75 CALM      30.21F
6HR MIN TEMP: -10; 6HR MAX TEMP:  -3;

MUNISING         N/A      3  -9  57 SW16G23   30.15F WCI -16
6HR MIN TEMP:   2; 6HR MAX TEMP:   6;

$$
MIZ004>006-011>014-085-061300-
CENTRAL UPPER MICHIGAN

CITY           SKY/WX    TMP DP  RH WIND       PRES   REMARKS
MANISTIQUE     PTCLDY     6  -3  67 SW10      30.21F WCI  -9
ESCANABA       PTCLDY     0  -8  71 SW7       30.23F WCI -13
6HR MIN TEMP:   0; 6HR MAX TEMP:   5;

MENOMINEE      PTCLDY     1  -6  71 SW8       30.25S WCI -12
6HR MIN TEMP:   0; 6HR MAX TEMP:   5;

SAWYER-GWINN   CLEAR      1  -8  66 SW12      30.10F WCI -15
$$
MIZ001>003-009>011-084-061300-
WESTERN UPPER MICHIGAN

CITY           SKY/WX    TMP DP  RH WIND       PRES   REMARKS
IRON MOUNTAIN  PTCLDY     0  -7  72 S6        30.13F WCI -12
6HR MIN TEMP:  -4; 6HR MAX TEMP:   4;

HOUGHTON       PTCLDY     3  -5  69 S7        29.99F WCI  -9
6HR MIN TEMP:   2; 6HR MAX TEMP:   7;

COPPER HARBOR    N/A      8  -4  58 W14G25    29.99F WCI  -8
6HR MIN TEMP:   4; 6HR MAX TEMP:   8;

IRONWOOD       CLEAR      9   0  66 SW16      29.99F WCI  -9
6HR MIN TEMP:   5; 6HR MAX TEMP:   9;

$$

ABBREVIATIONS USED IN REMARKS
   TC - TEMPERATURE IN CELSIUS
  WCI - WIND CHILL INDEX
   HX - HEAT INDEX
  VSB - VISIBILITY




USA.gov is the U.S. government's official web portal to all federal, state and local government web resources and services.